[[{"header":{"parameterUnit":"m.s-1","parameterCategory":1,"la1":30.2991,"la2":30.254,"lo1":-89.0895,"lo2":-89.0444,"dy":0.0017,"dx":0.0017,"nx":28,"ny":28,"refTime":"2025-05-25T21:00:00:Z","depth":0,"parameterNumber":2,"parameterNumberName":"U-component_of_WINDS"},"data":[0,0,0,0,0,0,0,0,0,0,0,0,0,0,0,0,0,0,0,0,0,0,0,0,0,0,0,0,0,0,0,0,0,0,0,0,0,0,0,0,0,0,0,0,0,0,0,0,0,0,0,0,0,0,0,0,0,0,2.6325,2.6325,0,2.6386,2.6387,2.6387,2.6364,2.6362,2.6361,2.6359,2.6418,2.6421,2.6424,0,0,0,0,0,0,0,0,0,0,0,0,0,2.6183,2.6185,2.6325,2.6325,2.6326,2.6386,2.6387,2.6387,2.6364,2.6362,2.636,2.6359,2.6417,2.6421,2.6424,0,0,0,0,0,0,0,0,0,0,0,0,0,2.6244,2.6186,2.6325,2.6322,2.6322,2.6386,2.6387,2.6388,2.6364,2.6362,2.636,2.6358,2.6416,2.642,2.6425,2.6493,0,0,2.6438,2.644,0,0,0,0,0,0,0,0,2.6241,2.6249,2.6321,2.6322,2.6323,2.6365,2.6358,2.6423,2.6365,2.6348,2.6359,2.6357,2.6402,2.6407,2.6423,2.6496,2.6499,2.6438,2.6441,2.6443,2.6444,0,0,0,0,0,0,0,2.6236,2.6246,2.6349,2.6322,2.6323,2.6316,2.6322,2.637,2.6386,2.6349,2.6348,2.6356,2.6402,2.6419,2.6424,2.65,2.6438,2.6442,2.6445,2.6446,2.6629,2.6631,0,0,0,0,0,0,2.6233,2.6243,2.6347,2.6351,2.6276,2.632,2.6327,2.6353,2.6385,2.6388,2.6357,2.6354,2.6413,2.6419,2.6426,2.6507,2.6443,2.6447,2.6449,2.6627,2.6629,2.6632,0,0,0,0,0,0,2.623,2.6242,2.6344,2.6296,2.6309,2.6325,2.6354,2.6356,2.6373,2.6391,2.6394,2.6372,2.6411,2.642,2.6477,2.6508,2.6449,2.6453,2.6624,2.6628,2.6631,2.6669,0,0,0,0,0,0,2.6226,2.6241,2.6269,2.6297,2.6312,2.6395,2.6356,2.6358,2.6381,2.6378,2.6406,2.6409,2.641,2.647,2.6481,2.6513,2.6456,2.6621,2.6626,2.663,2.6665,2.6673,2.6681,0,0,0,0,0,2.6221,2.6277,2.627,2.6283,2.6346,2.6397,2.6405,2.6407,2.6384,2.641,2.6422,2.6408,2.6504,2.6476,2.6488,2.6522,2.6619,2.6624,2.6629,2.6661,2.6672,2.668,0,0,0,0,0,0,2.625,2.628,2.6273,2.6341,2.6367,2.6393,2.6426,2.6418,2.6449,2.6445,2.6445,2.6451,2.6508,2.6521,2.649,2.6589,2.6558,2.6565,2.6578,2.6588,2.6596,2.659,2.6459,0,0,0,0,0,2.6265,2.6305,2.6328,2.6385,2.6399,2.6411,2.6433,2.6432,2.6458,2.6468,2.6484,2.6509,2.6544,2.6567,2.6601,2.6668,2.6672,2.6697,2.6705,2.6711,2.6717,2.675,2.676,2.6649,2.6649,2.6648,0,0,2.6295,2.6316,2.6341,2.6392,2.6412,2.6451,2.642,2.6463,2.6491,2.6474,2.6528,2.654,2.6568,2.6629,2.6656,2.6641,2.6749,2.6717,2.6722,2.6725,2.6756,2.6767,2.6776,2.6652,2.6651,2.6651,0,0,2.6369,2.639,2.6439,2.646,2.649,2.6498,2.6509,2.6537,2.6545,2.6599,2.6586,2.6619,2.6681,2.6701,2.6718,2.6799,2.6786,2.681,2.685,2.6882,2.6891,2.6899,2.6925,2.6935,2.6817,2.6817,2.6817,0,2.6401,2.6461,2.6465,2.6509,2.653,2.6518,2.6566,2.6585,2.6625,2.6639,2.6622,2.6698,2.6716,2.678,2.6799,2.6816,2.6827,2.6806,2.689,2.6898,2.6905,2.693,2.694,2.6819,2.6819,2.6819,2.6818,0,2.6499,2.654,2.6576,2.6615,2.6641,2.6687,2.6695,2.6721,2.6718,2.6726,2.678,2.6801,2.6838,2.6854,2.6851,2.6917,2.6906,2.689,2.6858,2.6918,2.6941,2.6951,2.6823,2.6822,2.6821,2.682,0,0,2.6591,2.6632,2.6645,2.6661,2.6694,2.6726,2.677,2.6807,2.6828,2.6856,2.6891,2.6943,2.6928,2.6948,2.6948,2.6977,2.7036,2.6957,2.6957,2.6968,2.7106,2.7116,2.7127,2.7029,2.7031,2.7032,2.7103,0,2.6665,2.6745,2.6748,2.6819,2.6856,2.6845,2.6884,2.6907,2.6916,2.6948,2.6957,2.6993,2.6972,2.6984,2.7012,2.7023,2.7063,2.7018,2.7059,2.7061,2.705,2.714,2.7151,2.7216,2.7112,2.7114,2.7115,0,2.6762,2.6794,2.6869,2.6895,2.691,2.6945,2.6978,2.7009,2.7035,2.7039,2.7062,2.7057,2.71,2.7069,2.7127,2.7096,2.7113,2.7121,2.7124,2.7125,2.7089,2.7141,2.7238,2.7246,2.713,2.7129,2.7128,0,2.6819,2.688,2.6932,2.6947,2.698,2.7004,2.7018,2.7042,2.7063,2.7092,2.7105,2.7139,2.7156,2.7181,2.7185,2.7162,2.7242,2.7212,2.7245,2.7244,2.726,2.7258,2.7358,2.7276,2.7276,2.7276,2.7275,0,2.6899,2.6945,2.6957,2.6989,2.7039,2.7043,2.7091,2.7104,2.7125,2.7157,2.715,2.718,2.7185,2.7216,2.7219,2.7265,2.7273,2.7276,2.7276,2.7276,2.7275,2.7285,2.7279,2.7278,2.7278,2.7277,2.7277,0,2.6969,2.698,2.7036,2.7062,2.707,2.7105,2.7127,2.7156,2.7165,2.7206,2.7216,2.7229,2.7265,2.7272,2.7314,2.7316,2.737,2.7366,2.7361,2.736,2.7391,2.7387,2.7498,2.7512,2.7424,2.7425,2.7425,0,2.7019,2.7054,2.7084,2.7106,2.7121,2.7157,2.7179,2.7183,2.7206,2.7237,2.7262,2.7298,2.7326,2.7383,2.7395,2.7427,2.7423,2.7459,2.7427,2.7425,2.7419,2.7416,2.7418,2.7465,2.7465,2.7466,2.7467,0,2.7104,2.7108,2.714,2.7174,2.7201,2.7228,2.7253,2.7271,2.7279,2.7305,2.7342,2.7364,2.7407,2.7441,2.7472,2.7485,2.7476,2.7478,2.7486,2.7484,2.7479,2.7479,2.7375,2.7474,2.7473,2.7473,2.7473,2.7472,2.7163,2.7193,2.7218,2.7254,2.7274,2.7298,2.7326,2.7339,2.737,2.7406,2.7407,2.7447,2.747,2.7511,2.7526,2.7556,2.7544,2.7558,2.7561,2.7563,2.7565,2.7477,2.7562,2.7562,2.7562,2.7562,2.7562,0,2.7246,2.7262,2.7295,2.7331,2.7359,2.7351,2.7378,2.7401,2.7436,2.7459,2.7487,2.7529,2.7562,2.7577,2.7609,2.763,2.7626,2.7638,2.7634,2.7637,2.7575,2.7563,2.764,2.764,2.764,2.764,2.764,2.7639,2.7291,2.734,2.7347,2.7404,2.742,2.7459,2.7475,2.7496,2.7514,2.7561,2.7589,2.7599,2.7618,2.7652,2.7681,2.7684,2.7695,2.7707,2.7709,2.765,2.7642,2.7634,2.7622,2.7711,2.7711,2.7768,2.7768,2.7769]},{"header":{"parameterUnit":"m.s-1","parameterCategory":1,"la1":30.2991,"la2":30.254,"lo1":-89.0895,"lo2":-89.0444,"dy":0.0017,"dx":0.0017,"nx":28,"ny":28,"refTime":"2025-05-25T21:00:00:Z","depth":0,"parameterNumber":3,"parameterNumberName":"V-component_of_WINDS"},"data":[0,0,0,0,0,0,0,0,0,0,0,0,0,0,0,0,0,0,0,0,0,0,0,0,0,0,0,0,0,0,0,0,0,0,0,0,0,0,0,0,0,0,0,0,0,0,0,0,0,0,0,0,0,0,0,0,0,0,3.3509,3.351,0,3.3615,3.3617,3.3618,3.3604,3.3602,3.36,3.3598,3.3703,3.3708,3.3712,0,0,0,0,0,0,0,0,0,0,0,0,0,3.3289,3.3294,3.3509,3.3511,3.3512,3.3615,3.3617,3.3618,3.3604,3.3602,3.36,3.3598,3.3702,3.3707,3.3713,0,0,0,0,0,0,0,0,0,0,0,0,0,3.3389,3.3295,3.3509,3.3517,3.3519,3.3615,3.3617,3.3618,3.3604,3.3602,3.3599,3.3597,3.37,3.3707,3.3713,3.3806,0,0,3.3734,3.3736,0,0,0,0,0,0,0,0,3.3383,3.3397,3.3515,3.3517,3.3519,3.3594,3.3578,3.3681,3.3605,3.3572,3.3598,3.3595,3.3669,3.3678,3.3703,3.3811,3.3816,3.3734,3.3738,3.3741,3.3743,0,0,0,0,0,0,0,3.3377,3.3392,3.3551,3.3516,3.3519,3.3514,3.3525,3.3597,3.3634,3.3575,3.3574,3.3587,3.3669,3.3697,3.3706,3.3817,3.3734,3.374,3.3744,3.3746,3.4005,3.4008,0,0,0,0,0,0,3.3368,3.3387,3.3548,3.3554,3.3444,3.352,3.3533,3.3572,3.3633,3.364,3.3589,3.3586,3.3687,3.3698,3.3709,3.3822,3.3741,3.3747,3.3751,3.4002,3.4006,3.4009,0,0,0,0,0,0,3.3363,3.3383,3.3543,3.347,3.3491,3.3527,3.3571,3.3576,3.3603,3.3644,3.365,3.3611,3.3685,3.37,3.3782,3.3825,3.375,3.3756,3.3999,3.4003,3.4007,3.4047,0,0,0,0,0,0,3.3357,3.3381,3.3418,3.3471,3.3494,3.3616,3.3574,3.358,3.3615,3.3612,3.3666,3.3672,3.3684,3.3772,3.3789,3.3833,3.3761,3.3995,3.4001,3.4006,3.4042,3.4052,3.4061,0,0,0,0,0,3.3349,3.3425,3.342,3.344,3.3542,3.3619,3.3632,3.3646,3.3619,3.3656,3.3681,3.367,3.3818,3.3781,3.3799,3.3846,3.3992,3.3999,3.4005,3.4038,3.405,3.4061,0,0,0,0,0,0,3.3375,3.3432,3.3427,3.3523,3.3566,3.3616,3.3663,3.3658,3.371,3.3704,3.3718,3.373,3.3813,3.3838,3.3796,3.3938,3.3901,3.3912,3.392,3.3932,3.3941,3.3933,3.3767,0,0,0,0,0,3.3391,3.3451,3.3497,3.3576,3.3598,3.3627,3.3661,3.3668,3.3713,3.3731,3.3762,3.3805,3.3861,3.3898,3.3951,3.4045,3.4056,3.4086,3.4095,3.4103,3.4112,3.4162,3.4176,3.403,3.403,3.403,0,0,3.3427,3.3465,3.3501,3.3582,3.3617,3.3676,3.3643,3.3707,3.3751,3.374,3.382,3.3844,3.3893,3.3981,3.4022,3.4004,3.4154,3.4111,3.4117,3.4122,3.417,3.4184,3.4196,3.4034,3.4034,3.4033,0,0,3.3521,3.3557,3.3626,3.3661,3.3714,3.3732,3.3749,3.38,3.3816,3.3896,3.3889,3.394,3.4036,3.4071,3.4101,3.4207,3.4198,3.4223,3.4273,3.4321,3.4333,3.4343,3.438,3.4393,3.4232,3.4232,3.4232,0,3.3558,3.3648,3.3662,3.3728,3.3762,3.3756,3.3825,3.3858,3.3925,3.3949,3.3928,3.4048,3.408,3.4176,3.4202,3.4227,3.4245,3.4218,3.433,3.4341,3.4351,3.4386,3.44,3.4235,3.4235,3.4234,3.4234,0,3.369,3.3753,3.3802,3.3868,3.3909,3.3976,3.3998,3.4037,3.4039,3.4059,3.414,3.4178,3.4239,3.4262,3.4265,3.4358,3.4345,3.4327,3.429,3.4367,3.44,3.4414,3.4239,3.4238,3.4237,3.4236,0,0,3.3805,3.3877,3.3895,3.3924,3.3981,3.4029,3.4094,3.4154,3.4187,3.4233,3.4287,3.4368,3.4351,3.4386,3.4392,3.4435,3.4515,3.4412,3.4413,3.4429,3.4618,3.4631,3.4647,3.4509,3.4512,3.4514,3.4614,0,3.3905,3.4023,3.4036,3.414,3.4197,3.4191,3.4248,3.4288,3.4308,3.4358,3.4378,3.4436,3.441,3.443,3.4472,3.4496,3.4553,3.4489,3.4559,3.4561,3.4547,3.4664,3.4679,3.4771,3.4627,3.4629,3.4631,0,3.4038,3.4088,3.4198,3.4246,3.427,3.4321,3.4377,3.4425,3.4469,3.448,3.4518,3.4518,3.4584,3.4544,3.4634,3.459,3.4619,3.4635,3.4639,3.4646,3.4601,3.4674,3.4801,3.4815,3.4651,3.465,3.4648,0,3.411,3.4205,3.4283,3.4308,3.4365,3.4401,3.4426,3.4468,3.4503,3.4551,3.4573,3.4628,3.4657,3.4699,3.4713,3.4683,3.4802,3.4763,3.4812,3.4812,3.4838,3.4836,3.4971,3.4856,3.4856,3.4856,3.4856,0,3.422,3.4287,3.4316,3.4364,3.4438,3.4452,3.4525,3.4548,3.4585,3.4636,3.4633,3.4681,3.4697,3.4747,3.4758,3.483,3.4844,3.4854,3.4856,3.4854,3.4853,3.4874,3.4868,3.486,3.4859,3.4858,3.4857,0,3.4313,3.4335,3.442,3.4467,3.448,3.4533,3.4573,3.4618,3.4636,3.4701,3.4717,3.4745,3.4804,3.4822,3.4892,3.49,3.4984,3.4981,3.497,3.497,3.5018,3.5013,3.5171,3.5192,3.5063,3.5064,3.5065,0,3.4382,3.4434,3.4487,3.4522,3.4548,3.4604,3.464,3.4654,3.4691,3.4744,3.4782,3.484,3.4888,3.4981,3.5007,3.506,3.5058,3.5109,3.5066,3.5062,3.5058,3.5055,3.506,3.5118,3.5119,3.512,3.5121,0,3.4502,3.451,3.4562,3.4618,3.466,3.4705,3.4747,3.4775,3.4795,3.4836,3.4896,3.4933,3.5004,3.5061,3.5115,3.5139,3.5134,3.5134,3.5148,3.5147,3.5139,3.5144,3.4992,3.5131,3.513,3.5129,3.5129,3.5128,3.4586,3.4631,3.4675,3.4733,3.4766,3.4805,3.485,3.4874,3.4925,3.4985,3.4989,3.5054,3.5095,3.5167,3.5194,3.5243,3.5228,3.5249,3.5254,3.5259,3.5263,3.5131,3.5253,3.5253,3.5252,3.5252,3.5252,0,3.4705,3.4733,3.4786,3.4845,3.489,3.4881,3.4927,3.4964,3.5022,3.5061,3.5107,3.5175,3.523,3.526,3.5315,3.5348,3.5347,3.5362,3.536,3.5365,3.5273,3.5255,3.5363,3.5363,3.5363,3.5362,3.5362,3.5362,3.4773,3.4849,3.4861,3.4953,3.498,3.5044,3.5071,3.5106,3.5138,3.5214,3.526,3.528,3.5315,3.5371,3.5421,3.5428,3.5448,3.5465,3.547,3.5383,3.5372,3.5361,3.5345,3.5469,3.5469,3.5558,3.5559,3.556]}]]